Tracking 17884 objects as of 3-December-2016
HD Live streaming from Space Station
objects crossing your sky now

COSMOS 482 DESCENT CRAFT

Track COSMOS 482 DESCENT CRAFT now!
10-day predictions
COSMOS 482 DESCENT CRAFT is classified as:


NORAD ID: 6073
Int'l Code: 1972-023E
Perigee: 209.9 km
Apogee: 2,686.5 km
Inclination: 52.1 °
Period: 114.7 minutes
Semi major axis: 7819 km
RCS: 0.7153 m2 (medium)
Launch date: March 31, 1972
Source: Commonwealth of Independent States (former USSR) (CIS)
Launch site: TYURATAM MISSILE AND SPACE COMPLEX (TTMTR)
Your satellite tracking list
Your tracking list is empty





NASA's NSSDC Master Catalog

Two Line Element Set (TLE):
1 06073U 72023E   16337.66184760  .00019866  48801-5  98997-4 0  9990
2 06073  52.0645   2.1305 1583661 206.9708 143.9529 12.55620642336281
Source of the keplerian elements: AFSPC